Regional Weather Roundup
Issued by NWS Wakefield, VA

Home | Current Version | Previous Version | Text Only | Print | Product List | Glossary On
Versions: 1 2 3 4 5 6 7 8 9 10 11 12 13 14 15 16 17 18 19 20 21 22 23 24 25 26 27 28 29 30 31 32 33 34 35 36 37 38 39 40 41 42 43 44 45 46 47 48 49 50
955
ASUS41 KAKQ 020115
RWRAKQ

REGIONAL WEATHER ROUNDUP
NATIONAL WEATHER SERVICE WAKEFIELD VA
900 PM EDT SUN MAY 01 2016

Note: "fair" indicates few or no clouds below 12,000 feet with no
significant weather and/or obstructions to visibility. * = Denotes
station may not report precipitation (e.g., rain,snow,etc.),
thunder or fog.

VAZ042-051-052>054-056-020200-
NORTHERN VIRGINIA

CITY           SKY/WX    TMP DP  RH WIND       PRES   REMARKS
WASH NATIONAL  DRIZZLE   56  55  97 E7        30.04R FOG
DULLES         FOG       56  54  93 NE8       30.03S VSB 1
FORT BELVOIR   CLOUDY    57  55  94 VRB1      30.03R
QUANTICO       CLOUDY    60  57  89 E6        30.03R
FREDERICKSBRG* CLOUDY    60  60 100 CALM      30.01S
STAFFORD*      CLOUDY    58  56  95 E3        30.05S FOG
WARRENTON      CLOUDY    59  55  85 E3        30.02R
CULPEPER*      DRIZZLE   60  59  97 CALM      30.03R
MANASSAS*      CLOUDY    57  57 100 E3        30.02R
LEESBURG*      CLOUDY    55  55 100 E5        30.06R FOG
WINCHESTER     CLOUDY    59  55  88 E6        30.02R
FRONT ROYAL*   CLOUDY    59  57  94 N6        29.99R
LURAY*         TSTM      61  61 100 CALM      29.98R
$$

VAZ048-049-060>072-079>083-020200-
CENTRAL AND SOUTH CENTRAL VIRGINIA

CITY           SKY/WX    TMP DP  RH WIND       PRES   REMARKS
RICHMOND       CLOUDY    64  63  96 NE5       30.00R FOG
CHESTERFIELD*  MOCLDY    64  54  68 MISG        N/A
PETERSBURG*    CLOUDY    68  68 100 CALM      30.00R FOG
HANOVER        CLOUDY    63  60  90 CALM      30.02R FOG
TAPPAHANNOCK*  CLOUDY    62  62 100 NE3       30.02S FOG
QUINTON*       CLOUDY    65  65  98 E3        29.99R
CHARLOTTSVILLE CLOUDY    64  59  83 NE7       30.00R
GORDONSVILLE*  CLOUDY    63  61  95 CALM      30.00R
ORANGE*        CLOUDY    63  63 100 CALM      30.03R
LOUISA*        CLOUDY    66  64  94 E3        29.99S
BUMPASS*       CLOUDY    61  60  96 CALM      30.01S
FARMVILLE*     CLOUDY    67  67 100 N3        29.97R
CREWE*         CLOUDY    64  64 100 CALM      29.99R
FORT PICKETT*  NOT AVBL
CHASE CITY*    MOCLDY    69  68  94 SE3       29.99R
CLARKSVILLE*   FAIR      66  66 100 CALM      29.99R
SOUTH HILL*    MOCLDY    67  65  94 S6        30.05R
LAWRENCEVILLE* FAIR      67  65  94 CALM      29.99R
EMPORIA*       CLOUDY    68  64  88 SE3       30.01S
$$

VAZ088>098-020200-
SOUTHEAST VIRGINIA

CITY           SKY/WX    TMP DP  RH WIND       PRES   REMARKS
NORFOLK        FAIR      69  63  81 SW8       30.00R
VIRGINIA BEACH FAIR      73  63  70 SW5       30.00R
NORFOLK NAVAL  MOCLDY    69  63  81 SW5       30.02R
WEST POINT*    CLOUDY    66  64  96 E3        30.02R
SALUDA*        CLOUDY    60  60  99 E3        30.01R
NEWPORT NEWS   CLOUDY    68  64  87 SW5       30.00R
LANGLEY AFB    CLOUDY    71  65  81 SW7       30.00R
FORT EUSTIS    MOCLDY    70  64  80 S3        29.99R
WILLIAMSBURG*  FAIR      68  66  94 CALM      30.01R
HR EXEC AP*      N/A    N/A N/A N/A CALM      30.03R
FRANKLIN*      FAIR      66  63  89 S3        30.02R
US460-WAKEFLD  CLOUDY    71  65  81 VRB3      30.00R
$$

VAZ020-022-025-037-045-020200-
WEST CENTRAL AND SOUTHWEST VIRGINIA

CITY           SKY/WX    TMP DP  RH WIND       PRES   REMARKS
STAUNTON*      FAIR      66  62  86 CALM      30.01R
WAYNESBORO*    FAIR      62  60  93 MISG      29.99R
HOT SPRINGS VA CLOUDY    64  64 100 CALM      30.06R
LYNCHBURG      FAIR      67  64  90 SW5       29.99R
DANVILLE       FAIR      67  65  93 S3        29.98R
SOUTH BOSTON*  FAIR      69  67  94 CALM      29.99R
MARTINSVILLE   MOCLDY    64  63  97 CALM      30.02R
ROANOKE        CLOUDY    70  63  78 SE8       29.98R THUNDER
BLACKSBURG     FAIR      67  62  82 SW7G16    30.04R
DUBLIN*        MOCLDY    68  63  82 SW10G17   30.03R
MARION*        MOCLDY    70  61  72 S5        30.05R
HILLSVILLE*    FAIR      63  61  93 S6        30.04S
RICHLANDS*     FAIR      69  65  87 SW8       30.02R
WISE*          MOCLDY    68  55  64 SW7       30.03R
ABINGDON*      FAIR      73  60  65 W9        30.01R
$$

MDZ021>025-VAZ099-100-020200-
SOUTHERN MARYLAND AND THE DELMARVA PENINSULA

CITY           SKY/WX    TMP DP  RH WIND       PRES   REMARKS
PATUXENT RIVER CLOUDY    57  55  93 NE3       30.02S
BAY BRIDGE APT NOT AVBL
LEONARDTOWN    CLOUDY    55  54  94 CALM      30.04R
DOVER          CLOUDY    54  54 100 N5        30.05R
GEORGETOWN     CLOUDY    52  52 100 NE7       30.05R
EASTON         CLOUDY   N/A N/A N/A E6        30.07R FOG
CAMBRIDGE      CLOUDY    54  54 100 NE3       30.03R
SALISBURY      CLOUDY    56  56 100 NE5       30.03R FOG
OCEAN CITY     CLOUDY    54  53  97 N6        30.03S
WALLOPS ISLAND CLOUDY    59  56  89 NE5       30.03R
ACCOMACK*      CLOUDY   N/A N/A N/A CALM      30.02R
$$

NCZ012>017-030>032-020200-
NORTH CENTRAL AND EASTERN NORTH CAROLINA

CITY           SKY/WX    TMP DP  RH WIND       PRES   REMARKS
ROANOKE RAPIDS MOCLDY    70  64  83 S3        30.00R
RALEIGH        CLOUDY    71  65  81 SW9       30.01R
ELIZABETH CITY CLOUDY    68  64  87 S6        30.02R
AHOSKIE*       CLOUDY    65  64  94 CALM      30.02R
EDENTON*       CLOUDY    70  68  93 SW8       30.03R
CURRITUCK*     CLOUDY    68  65  90 CALM      30.02R
KILL DEVIL HLS CLOUDY    69  65  85 S6        30.01R
MANTEO         NOT AVBL
CAPE HATTERAS  PTCLDY    69  65  86 SW12      30.04R
TARBORO*       FAIR      69  66  88 S5        30.01S
GOLDSBORO      CLOUDY    70  70 100 VRB3      30.00S
WASHINGTON     MOCLDY    68  65  90 S5        30.03R
GREENVILLE     CLOUDY    70  68  94 S7        30.03S
NEW BERN       CLOUDY    69  65  86 SW6       30.04R
WILMINGTON     PTCLDY    71  68  90 S9        30.03F
$$

VAZ048-020200-
ELSEWHERE

CITY           SKY/WX    TMP DP  RH WIND       PRES   REMARKS
HARRISBURG PA  DRIZZLE   52  50  93 E5        30.05R FOG
BALTIMORE      DRIZZLE   54  53  97 NE8       30.05R FOG
ANNAPOLIS      CLOUDY    55  54  96 NE6       30.04S FOG
ANDREWS AFB    CLOUDY    55  54  97 NE6       30.03R FOG
PHILADELPHIA   CLOUDY    52  48  86 NE9       30.08S
HENDERSON NC   CLOUDY    69  69 100 S6        30.00R
GREENSBORO     LGT RAIN  72  68  87 S14       30.00R
ROCKY MOUNT    CLOUDY    69  65  86 S5        30.01R
$$

VAZ100-020200-
MARINE

STATION/POSITION TIME  TEMP    WIND        PRES    WAVE   SWELL
                       AIR SEA DIR/SP/G            HT/PER HT/PER
                 (UTC) (F)     (DEG/KT/KT) (MB)    (FT/S) (FT/S)
BRANDYWINE LGT   0000           60/  7/  8 1017.2R
CAPE MAY NJ      0000      57                N/A
LEWES DE         0000      55                N/A
15NM E FENWICK I 0050   52 51              1017.2R   4/ 8
OCEAN-CITY-INLET 0000      54                N/A
WACHAPREAGUE VA  0000      61                N/A
THOMAS POINT MD  0100   54 57   80/  6/  6 1018.7R
GOOSES REEF MD   0100   56 57   50/  6/  8 1017.9R   1
COVE POINT MD    0000          110/  5/  6 1016.9R
SOLOMONS ISLAND  0000      59                N/A
BISHOPS HEAD MD  0000      58                N/A
PINEY POINT MD   0000           80/  5/  7   N/A
POTOMAC MD       0100   59 59   40/  6/  8 1015.5R   0
CAMBRIDGE MD     0000      60                N/A
LEWISETTA VA     0000      59                N/A
RAPPAHANNOCK LGT 0000           60/  7/  8 1016.2R
STINGRAY PT      0100   61 60  100/  4/  4 1016.5R   0
YORK RVR RNG VA  0000           70/  4/  5 1014.6R
YORKTOWN VA      0000      61                N/A
JAMESTOWN VA     0100   70 66  190/  4/  4   N/A     0
DOMINION TERM VA 0000          220/  6/  9 1015.3R
KIPTOPEKE VA     0000      60                N/A
CHES BAY BRIDGE  0000      59                N/A
CAPE HENRY VA    0000          160/  4/  5   N/A
CHESAPEAKE LGHT  0000   62     190/ 16/ 17 1015.8R
WILLOUBY STN VA  0000          230/  9/ 10 1016.1R
CAPE HENRY BUOY  0012      56                N/A     3/ 9
CAPE CHARLES BUO 0026      57                N/A     3/10   2/10
OFFSHORE WE BUOY 0021      54                N/A     3/ 8   3/ 8
64NM E OF VA BCH 0050   59 53  190/ 12/ 12 1016.3R   4/ 9   3/ 9
DUCK PIER NC     0000      67                N/A
44100 DUCK FRF   0024      56                N/A     3/ 9   2/11
44056 DUCK FRF   0011      59                N/A     3/ 9   2/11
OREGON INLET NC  0000      65                N/A
HATTERAS NC      0000      67                N/A
DIAMOND SHLS NC  0050   74 74  180/ 17/ 21 1017.2R   4/ 9   3/ 9
CAPE LOOKOUT NC  0000   70     190/ 10/ 12 1017.0F
$$




USA.gov is the U.S. government's official web portal to all federal, state and local government web resources and services.